Temperature
19 18 19 19 19 19 19 19 19 19 19 19 19 19 19 19 18 18 18 18 18 18 18 18 18 18 18 18 18 18 18 18 18 17 17 17 17 17 17 17 17 16 17
20 18 19 19 19 19 19 19 19 19 19 19 19 19 18 18 18 18 18 18 18 18 18 18 18 18 18 18 18 18 17 17 17 17 17 17 17 17 17 17 16 17 17
19 18 19 19 19 19 19 19 19 19 19 19 19 19 18 18 18 18 18 18 18 18 18 18 18 18 18 18 17 17 17 17 17 17 17 17 17 17 17 17 17 17 17
19 19 18 19 19 19 19 19 19 19 19 19 19 18 18 18 18 18 18 18 18 18 18 18 18 18 18 17 17 17 17 17 17 17 17 16 16 17 17 17 17 17 17
19 19 19 19 19 19 19 19 19 19 19 18 18 18 18 18 18 18 18 18 18 18 18 18 18 18 17 17 17 17 17 17 17 17 16 16 16 17 17 17 17 17 17
19 19 18 19 19 19 19 19 18 18 18 18 18 18 18 18 18 18 18 18 18 18 18 18 18 18 17 17 17 17 17 17 17 17 16 16 16 17 17 17 17 17 16
19 19 18 19 19 19 19 18 18 18 18 18 18 18 18 18 18 18 18 18 18 18 18 18 17 17 17 17 17 18 17 17 17 17 16 16 16 17 17 17 17 16 16
20 19 18 19 19 19 19 18 18 18 18 18 18 18 18 18 18 18 18 18 18 18 18 18 18 17 17 17 17 18 17 17 17 17 16 16 17 17 17 17 17 16 16
20 19 18 18 18 19 19 18 18 18 18 18 18 18 18 18 18 18 18 18 18 18 18 18 17 17 17 18 18 17 17 17 17 17 16 16 17 17 16 16 16 16 16
19 19 18 18 18 18 18 18 18 18 18 18 18 18 18 18 18 18 17 18 18 18 18 17 17 17 17 17 18 17 17 17 17 17 16 16 17 17 17 16 16 16 16
19 19 19 18 18 18 18 18 18 18 18 18 18 18 18 17 17 17 17 18 18 18 17 17 17 17 17 17 17 17 17 17 17 17 16 17 17 17 16 16 16 16 16
19 19 19 19 18 18 18 18 18 18 18 18 17 17 18 17 17 17 17 18 18 18 18 17 17 17 17 17 17 17 17 17 17 17 17 17 17 17 17 16 16 16 16
19 19 18 18 18 18 18 18 18 18 18 17 17 17 17 17 17 17 17 17 17 17 17 17 17 17 17 17 17 17 17 17 17 17 17 17 17 17 16 16 16 16 16
19 19 19 18 18 18 18 18 18 18 18 18 17 17 17 17 17 17 17 17 17 17 17 17 17 17 17 17 17 17 17 17 17 17 17 17 17 17 16 16 16 16 16
19 19 19 18 18 18 18 18 18 18 18 18 17 17 17 17 17 17 17 17 17 17 17 17 17 17 17 17 17 17 17 17 17 17 17 17 17 17 17 16 16 16 16
19 19 19 19 18 19 19 18 18 18 18 18 17 17 17 17 17 17 17 17 17 17 17 17 17 17 17 17 17 17 17 17 16 16 16 17 17 17 17 17 16 16 16
20 19 19 19 19 19 18 18 18 18 18 18 17 17 17 17 17 17 17 17 17 17 17 17 17 17 17 17 17 17 17 17 17 16 16 16 17 17 17 17 16 16 16
20 20 20 19 19 19 18 18 18 18 18 17 17 17 17 17 17 17 17 17 17 17 17 17 17 17 17 17 17 17 17 17 17 16 16 16 16 16 16 17 16 16 16
20 20 20 20 19 19 19 18 18 18 18 18 17 17 17 17 17 17 17 17 17 17 17 17 17 17 17 17 17 17 17 17 17 17 17 17 16 16 16 16 17 16 16
21 20 20 20 19 19 19 18 18 18 18 18 18 18 18 18 17 17 17 17 17 17 17 17 17 17 17 17 18 18 17 17 17 17 17 17 17 16 16 16 16 16 16
21 20 20 20 20 19 19 18 18 18 18 18 18 18 18 18 17 18 17 17 17 17 17 17 17 17 17 17 17 17 18 18 18 17 17 17 17 17 16 16 16 16 16
21 21 20 20 20 19 19 19 19 18 18 18 18 18 18 18 18 17 17 17 17 17 17 17 17 17 17 17 17 18 18 18 18 18 17 17 17 17 17 17 16 16 16
21 21 20 20 20 20 19 19 18 18 18 18 18 18 18 18 18 18 17 17 17 17 17 17 17 17 17 17 17 18 18 19 19 18 18 18 17 17 17 17 17 17 16
21 20 20 20 20 20 19 19 18 18 18 18 18 18 18 18 18 18 18 17 17 17 17 17 17 17 17 17 17 17 17 18 18 19 18 18 17 17 17 17 17 17 17
21 20 20 20 20 19 19 19 18 18 18 18 18 18 18 18 18 17 17 17 17 17 17 17 17 17 17 17 17 17 17 17 17 18 18 18 18 18 18 17 17 17 17
20 20 20 20 20 19 19 19 18 18 18 18 18 18 18 18 18 18 18 18 18 17 17 17 17 17 17 17 17 17 17 17 17 18 18 18 18 18 18 18 17 17 17
Wind_Speed
11 13 14 13 14 14 15 15 16 15 15 15 15 15 15 15 15 15 15 15 16 17 17 17 17 17 17 17 17 17 17 17 17 18 18 18 18 17 16 16 16 17 19
14 15 14 14 14 14 15 15 15 15 15 15 14 14 14 14 14 15 15 15 16 17 17 17 17 17 17 17 17 17 17 17 17 17 18 18 17 15 14 13 14 17 18
15 16 15 13 14 14 14 14 15 15 15 14 14 14 14 14 14 14 15 15 16 17 17 16 16 16 17 17 16 16 16 16 15 14 13 15 16 15 15 16 18 18 17
15 15 15 15 14 14 14 14 14 14 14 14 14 14 14 14 14 14 15 15 16 16 16 16 16 16 16 16 16 16 16 14 11 8 11 14 15 15 15 16 17 17 17
14 15 16 14 14 14 13 13 13 13 13 13 13 13 13 14 14 14 15 15 15 15 15 15 15 15 15 15 15 15 14 12 7 7 13 14 15 15 15 15 16 16 16
14 15 17 14 14 13 13 13 13 13 13 12 13 13 13 13 13 14 14 15 15 15 14 14 14 13 13 14 14 13 12 8 7 12 11 13 15 15 15 15 16 16 15
13 14 16 14 13 13 12 12 12 12 12 12 12 12 13 13 13 13 13 14 14 14 14 13 12 12 12 13 13 12 9 3 8 11 10 13 15 14 14 15 15 15 14
13 14 16 13 12 12 12 12 12 12 11 11 12 12 12 12 12 13 13 13 13 13 12 12 11 11 12 12 12 11 8 2 10 10 11 13 14 14 14 14 14 14 14
12 12 13 14 13 11 11 11 11 11 11 11 11 11 12 12 12 12 12 12 12 12 11 11 10 10 11 11 11 10 6 1 7 9 11 12 13 13 13 13 13 13 13
11 11 11 12 12 11 12 11 10 11 10 11 11 11 11 12 11 11 12 11 11 11 10 10 10 10 11 11 11 9 6 5 8 9 10 13 12 12 12 12 12 12 12
10 9 9 10 10 9 10 12 11 11 10 11 10 10 9 9 10 10 11 11 10 10 9 9 9 9 10 11 10 9 7 4 7 8 9 13 11 11 11 11 11 11 10
11 10 9 8 9 8 8 10 9 9 9 7 8 8 7 6 6 8 12 9 9 9 9 8 8 9 7 9 10 9 4 5 6 7 11 12 10 10 9 9 10 9 9
12 10 10 9 9 8 7 7 6 6 6 7 7 6 5 6 6 7 7 9 9 9 8 8 8 5 4 5 4 4 4 4 4 6 11 11 10 10 9 9 9 8 8
11 11 9 9 8 7 6 6 6 6 5 5 6 6 6 4 4 5 4 5 6 5 4 5 4 4 3 4 3 3 4 2 3 5 10 10 9 9 9 9 9 8 8
11 11 10 9 8 7 6 5 5 5 5 5 5 5 5 5 4 4 3 3 4 5 6 4 3 4 3 4 4 3 2 2 3 4 8 10 9 8 8 8 8 8 8
11 11 9 9 8 8 6 5 4 5 5 5 5 6 6 5 5 4 5 4 4 4 4 4 4 4 3 3 3 3 2 3 3 3 6 10 10 9 8 8 8 8 8
11 10 10 10 9 8 7 6 6 6 6 5 6 6 7 6 6 5 4 5 4 5 5 4 4 4 4 4 4 3 3 3 4 4 4 5 9 11 10 9 9 9 9
10 10 10 9 9 9 7 7 6 6 6 6 6 7 7 7 7 6 5 5 5 5 5 4 4 4 3 3 3 3 3 3 4 5 5 5 6 8 12 12 10 10 10
10 10 11 10 10 9 8 7 6 5 6 6 7 7 7 8 8 8 6 4 6 5 5 5 4 4 4 3 4 4 4 4 4 6 5 6 6 6 7 12 13 12 11
10 11 11 11 10 9 7 6 6 6 6 7 7 7 8 8 9 8 7 7 7 6 5 5 4 4 4 4 5 3 4 4 5 5 6 6 7 8 8 8 11 13 14
11 11 11 11 10 9 7 7 7 7 6 6 7 8 9 9 9 9 8 7 8 7 6 7 6 6 6 4 4 4 5 6 6 5 6 6 7 8 7 8 8 8 11
12 12 12 12 11 10 8 7 5 5 5 6 6 8 10 10 10 10 9 8 8 6 7 7 7 6 6 6 5 4 4 5 6 7 6 7 7 7 8 10 9 9 9
12 12 11 12 11 11 10 8 6 5 5 6 7 7 9 11 11 11 11 10 8 8 8 8 8 9 7 6 6 5 4 4 3 5 7 7 7 6 7 8 10 10 11
11 11 11 11 11 11 10 9 9 8 8 7 7 6 8 10 11 11 12 11 9 9 8 9 9 8 8 7 6 6 6 4 4 3 6 7 8 8 8 8 9 10 11
10 10 10 10 10 10 10 10 9 9 7 6 6 6 7 8 9 11 11 10 10 9 9 9 7 9 8 8 7 6 6 6 7 6 5 4 6 7 7 8 8 8 9
8 9 9 10 10 10 10 10 10 10 9 8 7 7 7 6 7 9 10 10 10 9 9 9 9 10 9 8 7 7 6 6 7 7 7 6 5 5 6 6 7 7 8
Wind_Direction
132 123 119 117 112 111 112 112 113 113 111 110 109 107 106 105 104 102 101 101 101 101 101 100 99 99 99 99 99 99 101 102 101 102 101 101 103 106 110 116 118 109 111
133 125 123 121 117 114 114 115 114 113 112 111 110 109 108 106 105 103 102 102 103 104 102 101 100 100 100 100 100 101 102 103 104 106 108 104 101 103 102 97 96 108 113
132 128 131 123 119 116 115 115 115 114 114 113 110 109 109 108 107 106 105 104 105 104 104 103 102 101 100 100 100 102 103 104 108 118 124 109 105 101 100 98 102 110 113
133 133 128 124 122 119 116 116 116 115 114 113 112 112 111 108 107 106 106 106 105 105 105 105 103 102 101 100 100 101 103 106 116 141 114 107 106 102 104 106 108 111 111
130 126 125 130 125 122 118 117 116 115 115 114 112 112 111 108 107 107 107 107 106 106 106 106 104 103 103 103 102 103 105 109 127 111 97 101 103 107 109 110 111 111 111
137 135 129 134 128 125 122 119 118 118 117 115 114 113 113 111 109 109 109 108 109 108 106 106 106 106 106 106 106 106 110 132 150 100 104 106 106 109 111 111 111 113 113
138 131 132 134 131 128 126 123 121 120 118 117 115 115 114 114 114 113 111 110 110 109 108 107 106 107 108 109 110 110 115 147 102 101 101 100 104 111 111 110 111 113 114
139 135 131 134 134 132 129 126 124 121 118 118 118 117 115 114 114 115 114 113 112 111 110 108 107 107 109 111 113 115 124 176 109 104 99 101 107 112 113 114 113 114 115
140 137 142 144 142 138 132 131 128 124 121 120 120 119 119 118 118 119 118 117 116 115 113 109 108 109 112 114 118 119 117 310 107 109 106 106 113 116 116 118 118 116 117
145 144 145 146 146 150 144 137 133 130 127 123 122 122 123 124 124 130 131 120 119 117 116 113 111 113 115 118 122 126 146 209 106 109 107 114 121 122 123 122 122 123 123
151 150 153 148 153 156 149 142 145 141 138 141 135 136 153 144 136 148 115 121 122 121 118 115 116 122 129 128 130 147 183 127 102 98 102 116 129 129 127 127 126 128 128
162 163 159 158 157 162 151 150 157 153 150 154 140 151 147 126 134 124 123 129 128 129 130 124 131 155 172 134 142 180 147 115 116 113 111 126 136 135 135 134 132 133 135
168 170 166 164 166 168 157 165 160 152 151 151 145 150 135 144 143 140 145 149 150 159 155 148 173 165 140 112 137 137 112 120 117 113 121 137 145 145 145 145 143 142 142
176 176 175 170 172 173 172 166 171 163 161 155 150 170 156 155 153 146 157 153 162 163 158 167 159 142 131 133 133 124 138 142 121 111 126 144 155 158 159 157 157 156 157
180 181 181 180 176 177 179 192 176 170 168 158 160 170 172 170 169 158 153 164 175 165 174 183 171 155 162 162 161 155 142 127 125 138 135 152 164 169 172 172 171 170 171
186 185 182 187 185 187 186 193 185 183 178 172 178 178 187 185 171 172 177 185 185 183 176 184 176 186 194 178 179 161 178 149 143 170 153 159 173 180 184 185 185 184 183
189 188 187 190 190 198 198 198 197 197 191 191 185 186 195 198 182 194 191 194 190 183 179 197 191 201 202 194 188 183 188 191 165 178 182 174 175 184 191 196 198 198 197
189 189 191 193 191 199 204 209 208 208 201 202 199 195 199 204 199 209 207 203 193 201 194 191 207 207 206 207 197 203 188 189 190 196 198 199 196 185 186 193 202 205 206
190 188 190 197 195 199 201 207 215 210 214 215 208 205 200 206 206 216 219 208 209 212 209 216 193 214 208 217 211 205 214 210 204 207 207 211 206 206 192 181 197 207 213
190 191 192 196 198 198 202 208 216 216 216 220 217 209 209 210 212 222 220 210 217 216 215 219 206 218 225 226 236 216 229 223 221 214 221 216 212 213 211 193 196 205 211
191 193 195 198 194 196 201 208 211 216 218 219 220 215 214 217 216 222 230 211 222 219 219 217 212 209 219 217 231 233 234 231 226 218 222 228 218 218 219 212 219 216 203
195 195 195 200 196 199 202 208 215 220 226 225 225 215 220 220 222 221 226 227 221 222 218 222 219 230 225 212 228 238 237 224 225 224 216 220 226 218 219 217 219 224 234
195 196 199 200 197 201 203 205 207 208 223 222 222 220 220 222 224 231 228 230 225 227 219 220 219 224 230 226 227 239 255 250 237 214 220 223 223 226 229 224 221 220 225
198 195 197 197 199 199 201 208 210 218 222 223 222 224 223 224 228 229 230 230 228 229 224 225 221 225 228 231 225 233 254 286 266 244 219 216 219 224 233 235 231 222 224
194 193 194 195 200 201 204 207 216 229 233 233 228 231 229 227 230 231 230 230 226 230 230 232 228 229 228 234 237 233 236 240 245 259 258 236 224 225 226 230 237 237 230
181 186 190 191 197 200 204 210 218 230 236 238 237 237 228 226 230 229 229 228 228 229 228 228 228 228 234 239 245 245 240 241 242 246 253 249 241 234 226 233 237 237 236
Height
1541 1541 1540 1542 1543 1544 1545 1546 1547 1548 1548 1549 1550 1550 1551 1551 1552 1552 1553 1554 1554 1555 1556 1556 1557 1558 1558 1559 1559 1560 1560 1561 1561 1562 1563 1564 1565 1565 1566 1567 1568 1569 1570
1541 1542 1541 1543 1545 1546 1547 1548 1549 1550 1551 1551 1552 1553 1553 1554 1555 1555 1556 1557 1557 1558 1558 1559 1560 1560 1561 1562 1562 1562 1563 1563 1564 1565 1566 1567 1567 1568 1569 1570 1571 1571 1572
1542 1543 1544 1545 1547 1548 1549 1551 1552 1553 1553 1554 1555 1555 1556 1557 1558 1558 1559 1559 1560 1560 1561 1562 1563 1563 1564 1564 1565 1565 1566 1566 1567 1568 1569 1571 1570 1571 1571 1572 1573 1573 1574
1544 1546 1547 1547 1549 1550 1552 1553 1554 1555 1556 1556 1557 1558 1559 1559 1560 1561 1561 1562 1562 1563 1564 1564 1565 1566 1566 1567 1567 1568 1568 1569 1570 1571 1574 1574 1573 1573 1574 1575 1575 1576 1577
1546 1548 1547 1549 1551 1552 1554 1555 1556 1557 1558 1559 1560 1560 1561 1562 1562 1563 1564 1564 1565 1566 1566 1567 1568 1568 1569 1569 1570 1570 1571 1572 1573 1575 1576 1576 1575 1576 1576 1577 1578 1579 1580
1548 1550 1549 1551 1553 1554 1556 1557 1558 1559 1560 1561 1562 1562 1563 1564 1565 1565 1566 1567 1567 1568 1569 1570 1570 1571 1572 1572 1572 1573 1574 1574 1577 1578 1578 1578 1578 1578 1579 1580 1580 1581 1582
1550 1552 1551 1553 1555 1556 1558 1559 1560 1561 1562 1563 1564 1564 1565 1566 1567 1568 1568 1569 1570 1571 1571 1572 1573 1573 1574 1574 1575 1575 1576 1577 1580 1580 1580 1580 1580 1580 1581 1582 1583 1583 1584
1552 1554 1553 1554 1556 1558 1560 1561 1562 1563 1564 1565 1565 1566 1567 1568 1569 1570 1570 1571 1572 1573 1574 1574 1575 1576 1576 1577 1577 1578 1578 1579 1582 1582 1582 1582 1582 1583 1584 1584 1585 1586 1587
1553 1555 1556 1557 1558 1559 1561 1562 1564 1565 1566 1566 1567 1568 1569 1570 1571 1571 1572 1573 1574 1575 1576 1577 1577 1578 1578 1579 1579 1580 1580 1581 1585 1585 1585 1584 1584 1585 1586 1586 1587 1588 1589
1555 1556 1558 1560 1561 1562 1563 1564 1565 1566 1567 1568 1569 1570 1571 1571 1572 1573 1574 1575 1576 1577 1578 1579 1579 1580 1581 1581 1582 1582 1583 1584 1587 1587 1587 1586 1586 1587 1587 1588 1589 1590 1591
1555 1557 1559 1561 1562 1564 1566 1565 1566 1567 1568 1569 1570 1571 1572 1574 1575 1576 1576 1577 1578 1579 1580 1581 1581 1582 1583 1583 1584 1584 1585 1588 1588 1588 1588 1587 1588 1588 1589 1590 1591 1592 1592
1555 1558 1559 1561 1562 1565 1566 1566 1568 1569 1569 1571 1572 1573 1575 1575 1577 1578 1577 1578 1579 1580 1581 1582 1583 1584 1585 1586 1586 1586 1589 1589 1590 1590 1588 1588 1589 1590 1590 1591 1592 1593 1594
1555 1557 1560 1561 1562 1565 1566 1567 1569 1570 1570 1572 1573 1574 1575 1576 1578 1579 1580 1580 1581 1582 1584 1584 1585 1587 1588 1588 1588 1590 1590 1591 1591 1592 1590 1589 1590 1591 1591 1592 1593 1594 1595
1555 1557 1560 1561 1562 1564 1566 1568 1569 1570 1571 1573 1573 1574 1576 1577 1578 1580 1580 1581 1582 1584 1584 1586 1587 1588 1588 1588 1589 1590 1591 1592 1592 1592 1590 1590 1591 1591 1592 1593 1594 1595 1595
1555 1557 1559 1560 1562 1563 1564 1567 1569 1570 1572 1572 1573 1574 1575 1577 1579 1580 1580 1581 1583 1584 1585 1586 1587 1587 1588 1589 1590 1590 1591 1591 1592 1593 1592 1591 1591 1592 1593 1593 1594 1595 1596
1554 1556 1558 1560 1561 1563 1564 1566 1568 1570 1570 1572 1573 1574 1575 1577 1578 1579 1580 1581 1583 1584 1585 1586 1587 1588 1589 1589 1590 1590 1591 1591 1591 1592 1592 1591 1591 1592 1592 1593 1594 1595 1595
1553 1555 1557 1559 1561 1562 1564 1566 1567 1569 1570 1571 1572 1573 1574 1576 1577 1579 1580 1581 1583 1584 1584 1585 1586 1588 1588 1589 1590 1590 1591 1591 1591 1591 1592 1592 1592 1591 1592 1592 1593 1594 1595
1552 1554 1556 1559 1560 1561 1563 1564 1567 1568 1569 1570 1571 1572 1573 1575 1576 1577 1580 1581 1582 1583 1584 1585 1586 1587 1588 1589 1589 1589 1590 1590 1590 1590 1591 1591 1592 1592 1591 1592 1592 1593 1594
1551 1552 1554 1557 1558 1560 1562 1563 1565 1566 1567 1568 1569 1571 1572 1573 1574 1576 1578 1580 1580 1582 1583 1584 1585 1586 1587 1588 1588 1588 1589 1589 1589 1590 1590 1591 1591 1591 1592 1591 1591 1592 1592
1549 1551 1553 1554 1556 1558 1560 1561 1563 1564 1565 1566 1567 1568 1570 1571 1573 1575 1576 1578 1579 1581 1582 1583 1583 1584 1585 1586 1587 1588 1588 1588 1588 1588 1589 1589 1590 1590 1591 1591 1591 1591 1591
1546 1548 1550 1552 1554 1555 1557 1559 1561 1562 1563 1564 1565 1566 1568 1569 1571 1572 1575 1576 1577 1579 1580 1581 1582 1583 1584 1585 1586 1586 1586 1586 1586 1586 1587 1588 1588 1589 1589 1589 1590 1590 1590
1544 1546 1548 1550 1552 1553 1555 1557 1559 1560 1561 1562 1563 1564 1565 1567 1568 1571 1572 1574 1575 1576 1577 1579 1579 1581 1582 1583 1584 1584 1584 1585 1584 1584 1584 1585 1586 1586 1587 1587 1587 1587 1588
1541 1543 1545 1547 1549 1550 1552 1555 1556 1557 1558 1559 1560 1561 1562 1564 1566 1567 1569 1571 1572 1574 1575 1576 1577 1578 1579 1580 1581 1582 1582 1581 1581 1582 1582 1583 1583 1584 1584 1585 1585 1585 1585
1538 1540 1542 1544 1546 1548 1550 1552 1553 1554 1555 1556 1557 1559 1560 1561 1563 1564 1566 1567 1569 1571 1572 1573 1574 1575 1576 1577 1578 1578 1580 1580 1580 1579 1580 1580 1580 1580 1581 1582 1583 1583 1582
1536 1537 1539 1541 1543 1545 1547 1548 1550 1551 1553 1554 1555 1556 1557 1558 1560 1561 1563 1564 1565 1567 1568 1570 1571 1572 1573 1574 1575 1576 1576 1577 1578 1578 1577 1578 1578 1578 1578 1579 1579 1580 1580
1533 1535 1536 1537 1539 1541 1543 1545 1547 1548 1550 1551 1552 1553 1554 1555 1556 1558 1559 1560 1561 1563 1564 1565 1566 1568 1569 1570 1571 1572 1573 1574 1574 1575 1575 1574 1575 1575 1575 1575 1576 1576 1576